| time (UTC) | temp F | wind direction | speed knots | gust knots | rain 1hr in | rain 24hr in | rain mn in | humidity % | barometer mb |
| 20260831133904 | 78 | 224 | 0.0 | 4.3 | 0.00 | 0.00 | 0.00 | 79 | 1018.4 |
| 20260831133404 | 78 | 170 | 0.0 | 0.0 | 0.00 | 0.00 | 0.00 | 80 | 1018.4 |
| 20260831132904 | 77 | 185 | 0.0 | 0.0 | 0.00 | 0.00 | 0.00 | 81 | 1018.4 |
| 20260831132404 | 77 | 153 | 0.0 | 0.0 | 0.00 | 0.00 | 0.00 | 82 | 1018.4 |
| 20260831131903 | 76 | 146 | 0.0 | 0.0 | 0.00 | 0.00 | 0.00 | 82 | 1018.4 |
| 20260831131403 | 76 | 252 | 0.0 | 0.0 | 0.00 | 0.00 | 0.00 | 82 | 1018.4 |
| 20260831130904 | 75 | 209 | 0.0 | 0.0 | 0.00 | 0.00 | 0.00 | 82 | 1018.3 |
| 20260831130404 | 75 | 209 | 0.0 | 0.0 | 0.00 | 0.00 | 0.00 | 82 | 1018.3 |
| 20260831125904 | 75 | 196 | 0.0 | 0.0 | 0.00 | 0.00 | 0.00 | 82 | 1018.3 |
| 20260831125404 | 74 | 202 | 0.0 | 0.0 | 0.00 | 0.00 | 0.00 | 82 | 1018.2 |
| 20260831124904 | 74 | 148 | 0.0 | 0.0 | 0.00 | 0.00 | 0.00 | 82 | 1018.2 |
| 20260831124403 | 74 | 149 | 0.0 | 0.0 | 0.00 | 0.00 | 0.00 | 82 | 1018.2 |
| 20260831123904 | 74 | 152 | 0.0 | 0.0 | 0.00 | 0.00 | 0.00 | 82 | 1018.1 |
| 20260831123404 | 73 | 146 | 0.0 | 0.0 | 0.00 | 0.00 | 0.00 | 82 | 1018.1 |
| 20260831122904 | 73 | 168 | 0.0 | 0.0 | 0.00 | 0.00 | 0.00 | 82 | 1018.0 |
| 20260831122404 | 73 | 160 | 0.0 | 0.0 | 0.00 | 0.00 | 0.00 | 82 | 1018.0 |
| 20260831121903 | 73 | 162 | 0.0 | 0.0 | 0.00 | 0.00 | 0.00 | 82 | 1017.9 |
| 20260831121404 | 73 | 162 | 0.0 | 0.0 | 0.00 | 0.00 | 0.00 | 82 | 1017.9 |
| 20260831115903 | 72 | 218 | 0.0 | 0.0 | 0.00 | 0.00 | 0.00 | 82 | 1017.7 |
| 20260831115404 | 72 | 227 | 0.0 | 0.0 | 0.00 | 0.00 | 0.00 | 82 | 1017.7 |
| 20260831114904 | 72 | 227 | 0.0 | 0.0 | 0.00 | 0.00 | 0.00 | 82 | 1017.7 |
| 20260831114404 | 71 | 228 | 0.0 | 0.0 | 0.00 | 0.00 | 0.00 | 82 | 1017.6 |
| 20260831113904 | 71 | 233 | 0.0 | 0.0 | 0.00 | 0.00 | 0.00 | 82 | 1017.6 |
| 20260831113403 | 71 | 233 | 0.0 | 0.0 | 0.00 | 0.00 | 0.00 | 82 | 1017.5 |
| 20260831112903 | 71 | 233 | 0.0 | 0.0 | 0.00 | 0.00 | 0.00 | 82 | 1017.4 |
| 20260831112404 | 70 | 233 | 0.0 | 0.0 | 0.00 | 0.00 | 0.00 | 82 | 1017.4 |
| 20260831111904 | 70 | 233 | 0.0 | 0.0 | 0.00 | 0.00 | 0.00 | 82 | 1017.5 |
| 20260831111404 | 71 | 233 | 0.0 | 0.0 | 0.00 | 0.00 | 0.00 | 82 | 1017.4 |
| 20260831110903 | 71 | 233 | 0.0 | 0.0 | 0.00 | 0.00 | 0.00 | 82 | 1017.4 |
| 20260831110403 | 71 | 233 | 0.0 | 0.0 | 0.00 | 0.00 | 0.00 | 82 | 1017.4 |
| 20260831105903 | 71 | 233 | 0.0 | 0.0 | 0.00 | 0.00 | 0.00 | 82 | 1017.4 |
| 20260831105404 | 71 | 233 | 0.0 | 0.0 | 0.00 | 0.00 | 0.00 | 82 | 1017.4 |
| 20260831104904 | 71 | 233 | 0.0 | 0.0 | 0.00 | 0.00 | 0.00 | 82 | 1017.4 |
| 20260831104403 | 71 | 233 | 0.0 | 0.0 | 0.00 | 0.00 | 0.00 | 82 | 1017.4 |
| 20260831103904 | 71 | 233 | 0.0 | 0.0 | 0.00 | 0.00 | 0.00 | 82 | 1017.4 |
| 20260831102903 | 72 | 233 | 0.0 | 0.0 | 0.00 | 0.00 | 0.00 | 82 | 1017.2 |
| 20260831102403 | 72 | 233 | 0.0 | 0.0 | 0.00 | 0.00 | 0.00 | 82 | 1017.1 |
| 20260831101904 | 72 | 233 | 0.0 | 0.0 | 0.00 | 0.00 | 0.00 | 82 | 1017.1 |
| 20260831101403 | 72 | 233 | 0.0 | 0.0 | 0.00 | 0.00 | 0.00 | 82 | 1017.1 |
| 20260831100904 | 72 | 233 | 0.0 | 0.0 | 0.00 | 0.00 | 0.00 | 82 | 1016.9 |
| 20260831100404 | 71 | 233 | 0.0 | 0.0 | 0.00 | 0.00 | 0.00 | 82 | 1016.9 |
| 20260831095403 | 71 | 234 | 0.0 | 0.0 | 0.00 | 0.00 | 0.00 | 82 | 1016.7 |
| 20260831094404 | 71 | 234 | 0.0 | 0.0 | 0.00 | 0.00 | 0.00 | 82 | 1016.7 |
| 20260831093904 | 71 | 234 | 0.0 | 0.0 | 0.00 | 0.00 | 0.00 | 82 | 1016.7 |
| 20260831093403 | 71 | 234 | 0.0 | 0.0 | 0.00 | 0.00 | 0.00 | 82 | 1016.7 |
| 20260831092903 | 71 | 235 | 0.0 | 0.0 | 0.00 | 0.00 | 0.00 | 82 | 1016.7 |
| 20260831092404 | 71 | 235 | 0.0 | 0.0 | 0.00 | 0.00 | 0.00 | 82 | 1016.8 |
| 20260831091904 | 71 | 235 | 0.0 | 0.0 | 0.00 | 0.00 | 0.00 | 82 | 1016.8 |
| 20260831091403 | 70 | 235 | 0.0 | 0.0 | 0.00 | 0.00 | 0.00 | 82 | 1016.8 |
| 20260831090905 | 70 | 235 | 0.0 | 0.0 | 0.00 | 0.00 | 0.00 | 82 | 1016.9 |
| 20260831090405 | 70 | 235 | 0.0 | 0.0 | 0.00 | 0.00 | 0.00 | 82 | 1016.9 |
| 20260831085905 | 70 | 235 | 0.0 | 0.0 | 0.00 | 0.00 | 0.00 | 82 | 1016.9 |
| 20260831084405 | 70 | 235 | 0.0 | 0.0 | 0.00 | 0.00 | 0.00 | 82 | 1016.9 |
| 20260831083905 | 70 | 235 | 0.0 | 0.0 | 0.00 | 0.00 | 0.00 | 82 | 1016.8 |
| 20260831083405 | 70 | 235 | 0.0 | 0.0 | 0.00 | 0.00 | 0.00 | 82 | 1016.8 |
| 20260831082906 | 70 | 234 | 0.0 | 0.0 | 0.00 | 0.00 | 0.00 | 82 | 1016.7 |
| 20260831082405 | 70 | 235 | 0.0 | 0.0 | 0.00 | 0.00 | 0.00 | 82 | 1016.7 |
| 20260831081905 | 70 | 235 | 0.0 | 0.0 | 0.00 | 0.00 | 0.00 | 82 | 1016.7 |
| 20260831080906 | 70 | 235 | 0.0 | 0.0 | 0.00 | 0.00 | 0.00 | 82 | 1016.6 |
| 20260831080405 | 71 | 235 | 0.0 | 0.0 | 0.00 | 0.00 | 0.00 | 82 | 1016.6 |
| 20260831075905 | 71 | 235 | 0.0 | 0.0 | 0.00 | 0.00 | 0.00 | 82 | 1016.6 |
| 20260831074905 | 71 | 235 | 0.0 | 0.0 | 0.00 | 0.00 | 0.00 | 82 | 1016.4 |
| 20260831074405 | 71 | 235 | 0.0 | 0.0 | 0.00 | 0.00 | 0.00 | 82 | 1016.4 |
| 20260831073905 | 71 | 235 | 0.0 | 0.0 | 0.00 | 0.00 | 0.00 | 81 | 1016.4 |
| 20260831073405 | 71 | 235 | 0.0 | 0.0 | 0.00 | 0.00 | 0.00 | 81 | 1016.5 |
| 20260831072905 | 71 | 235 | 0.0 | 0.0 | 0.00 | 0.00 | 0.00 | 81 | 1016.5 |
| 20260831072406 | 71 | 235 | 0.0 | 0.0 | 0.00 | 0.00 | 0.00 | 82 | 1016.5 |
| 20260831071905 | 71 | 235 | 0.0 | 0.0 | 0.00 | 0.00 | 0.00 | 82 | 1016.5 |
| 20260831071405 | 71 | 235 | 0.0 | 0.0 | 0.00 | 0.00 | 0.00 | 81 | 1016.5 |
| 20260831070905 | 71 | 235 | 0.0 | 0.0 | 0.00 | 0.00 | 0.00 | 81 | 1016.6 |
| 20260831070405 | 71 | 235 | 0.0 | 0.0 | 0.00 | 0.00 | 0.00 | 81 | 1016.6 |
| 20260831065905 | 71 | 235 | 0.0 | 0.0 | 0.00 | 0.00 | 0.00 | 81 | 1016.6 |
| 20260831065405 | 71 | 235 | 0.0 | 0.0 | 0.00 | 0.00 | 0.00 | 81 | 1016.7 |
| 20260831064905 | 71 | 235 | 0.0 | 0.0 | 0.00 | 0.00 | 0.00 | 81 | 1016.7 |
| 20260831064405 | 71 | 235 | 0.0 | 0.0 | 0.00 | 0.00 | 0.00 | 81 | 1016.7 |
| 20260831063905 | 71 | 235 | 0.0 | 0.0 | 0.00 | 0.00 | 0.00 | 81 | 1016.7 |
| 20260831063405 | 71 | 235 | 0.0 | 0.0 | 0.00 | 0.00 | 0.00 | 80 | 1016.7 |
| 20260831062905 | 71 | 235 | 0.0 | 0.0 | 0.00 | 0.00 | 0.00 | 81 | 1016.8 |
| 20260831062405 | 71 | 235 | 0.0 | 0.0 | 0.00 | 0.00 | 0.00 | 81 | 1016.9 |
| 20260831061405 | 71 | 235 | 0.0 | 0.0 | 0.00 | 0.00 | 0.00 | 80 | 1016.9 |
| 20260831060905 | 71 | 235 | 0.0 | 0.0 | 0.00 | 0.00 | 0.00 | 80 | 1016.9 |
| 20260831055905 | 71 | 235 | 0.0 | 0.0 | 0.00 | 0.00 | 0.00 | 80 | 1017.0 |
| 20260831054905 | 72 | 235 | 0.0 | 0.0 | 0.00 | 0.00 | 0.00 | 80 | 1016.9 |
| 20260831054405 | 72 | 234 | 0.0 | 0.0 | 0.00 | 0.00 | 0.00 | 80 | 1016.8 |
| 20260831052405 | 72 | 235 | 0.0 | 0.0 | 0.00 | 0.00 | 0.00 | 79 | 1016.8 |
| 20260831051905 | 72 | 235 | 0.0 | 0.0 | 0.00 | 0.00 | 0.00 | 79 | 1016.9 |
| 20260831051405 | 72 | 235 | 0.0 | 0.0 | 0.00 | 0.00 | 0.00 | 79 | 1017.0 |
| 20260831050404 | 72 | 234 | 0.0 | 0.0 | 0.00 | 0.00 | 0.00 | 79 | 1017.0 |
| 20260831045905 | 72 | 235 | 0.0 | 0.0 | 0.00 | 0.00 | 0.00 | 79 | 1017.0 |
| 20260831045405 | 72 | 235 | 0.0 | 0.0 | 0.00 | 0.00 | 0.00 | 79 | 1017.0 |
| 20260831044905 | 72 | 235 | 0.0 | 0.0 | 0.00 | 0.00 | 0.00 | 79 | 1016.9 |
| 20260831044405 | 72 | 235 | 0.0 | 0.0 | 0.00 | 0.00 | 0.00 | 79 | 1016.9 |
| 20260831043904 | 72 | 235 | 0.0 | 0.0 | 0.00 | 0.00 | 0.00 | 79 | 1016.9 |
| 20260831043405 | 73 | 235 | 0.0 | 0.0 | 0.00 | 0.00 | 0.00 | 78 | 1016.9 |
| 20260831042905 | 73 | 235 | 0.0 | 0.0 | 0.00 | 0.00 | 0.00 | 78 | 1016.9 |
| 20260831042405 | 73 | 234 | 0.0 | 0.0 | 0.00 | 0.00 | 0.00 | 78 | 1016.9 |
| 20260831041405 | 73 | 235 | 0.0 | 0.0 | 0.00 | 0.00 | 0.00 | 78 | 1016.9 |
| 20260831040905 | 73 | 235 | 0.0 | 0.0 | 0.00 | 0.00 | 0.00 | 78 | 1016.9 |
| 20260831040405 | 73 | 235 | 0.0 | 0.0 | 0.00 | 0.00 | 0.00 | 77 | 1017.0 |
| 20260831035905 | 73 | 235 | 0.0 | 0.0 | 0.00 | 0.00 | 0.00 | 77 | 1016.9 |
| 20260831035405 | 73 | 235 | 0.0 | 0.0 | 0.00 | 0.00 | 0.00 | 77 | 1016.9 |
| 20260831034405 | 74 | 235 | 0.0 | 0.0 | 0.00 | 0.00 | 0.00 | 76 | 1016.9 |
| 20260831033405 | 74 | 235 | 0.0 | 0.0 | 0.00 | 0.00 | 0.00 | 76 | 1016.8 |
| 20260831032905 | 74 | 235 | 0.0 | 0.0 | 0.00 | 0.00 | 0.00 | 76 | 1016.7 |
| 20260831032405 | 74 | 234 | 0.0 | 0.0 | 0.00 | 0.00 | 0.00 | 75 | 1016.8 |
| 20260831031905 | 74 | 235 | 0.0 | 0.0 | 0.00 | 0.00 | 0.00 | 75 | 1016.8 |
| 20260831031404 | 75 | 235 | 0.0 | 0.0 | 0.00 | 0.00 | 0.00 | 75 | 1016.8 |
| 20260831030905 | 75 | 235 | 0.0 | 0.0 | 0.00 | 0.00 | 0.00 | 74 | 1016.8 |
| 20260831030405 | 75 | 235 | 0.0 | 0.0 | 0.00 | 0.00 | 0.00 | 74 | 1016.8 |
| 20260831025904 | 75 | 235 | 0.0 | 0.0 | 0.00 | 0.00 | 0.00 | 74 | 1016.9 |
| 20260831025405 | 75 | 235 | 0.0 | 0.0 | 0.00 | 0.00 | 0.00 | 74 | 1017.0 |
| 20260831024405 | 76 | 235 | 0.0 | 0.0 | 0.00 | 0.00 | 0.00 | 73 | 1016.9 |
| 20260831023905 | 76 | 235 | 0.0 | 0.0 | 0.00 | 0.00 | 0.00 | 73 | 1016.8 |
| 20260831023405 | 77 | 235 | 0.0 | 0.0 | 0.00 | 0.00 | 0.00 | 72 | 1016.6 |
| 20260831022904 | 77 | 235 | 0.0 | 0.0 | 0.00 | 0.00 | 0.00 | 72 | 1016.6 |
| 20260831022405 | 77 | 235 | 0.0 | 0.0 | 0.00 | 0.00 | 0.00 | 71 | 1016.6 |
| 20260831021905 | 78 | 235 | 0.0 | 0.0 | 0.00 | 0.00 | 0.00 | 70 | 1016.5 |
| 20260831021405 | 78 | 234 | 0.0 | 0.0 | 0.00 | 0.00 | 0.00 | 69 | 1016.5 |
| 20260831020905 | 78 | 235 | 0.0 | 0.0 | 0.00 | 0.00 | 0.00 | 69 | 1016.5 |
| 20260831020404 | 79 | 235 | 0.0 | 0.0 | 0.00 | 0.00 | 0.00 | 67 | 1016.5 |
| 20260831015405 | 79 | 235 | 0.0 | 0.0 | 0.00 | 0.00 | 0.00 | 65 | 1016.3 |
| 20260831014405 | 80 | 235 | 0.0 | 0.0 | 0.00 | 0.00 | 0.00 | 64 | 1016.3 |
| 20260831013905 | 80 | 235 | 0.0 | 0.0 | 0.00 | 0.00 | 0.00 | 64 | 1016.2 |
| 20260831013405 | 80 | 235 | 0.0 | 0.0 | 0.00 | 0.00 | 0.00 | 63 | 1016.1 |
| 20260831012905 | 81 | 235 | 0.0 | 0.0 | 0.00 | 0.00 | 0.00 | 63 | 1016.1 |
| 20260831012405 | 81 | 235 | 0.0 | 0.0 | 0.00 | 0.00 | 0.00 | 62 | 1016.0 |
| 20260831011904 | 81 | 235 | 0.0 | 0.0 | 0.00 | 0.00 | 0.00 | 61 | 1016.0 |
| 20260831011405 | 82 | 235 | 0.0 | 0.0 | 0.00 | 0.00 | 0.00 | 60 | 1016.0 |
| 20260831010905 | 82 | 235 | 0.0 | 0.0 | 0.00 | 0.00 | 0.00 | 60 | 1016.1 |
| 20260831010405 | 83 | 235 | 0.0 | 0.0 | 0.00 | 0.00 | 0.00 | 59 | 1016.1 |
| 20260831005905 | 83 | 235 | 0.0 | 0.0 | 0.00 | 0.00 | 0.00 | 58 | 1016.0 |
| 20260831005405 | 84 | 235 | 0.0 | 0.0 | 0.00 | 0.00 | 0.00 | 57 | 1016.0 |
| 20260831004905 | 84 | 234 | 0.0 | 0.0 | 0.00 | 0.00 | 0.00 | 57 | 1016.0 |
| 20260831004404 | 85 | 235 | 0.0 | 0.0 | 0.00 | 0.00 | 0.00 | 56 | 1015.9 |
| 20260831003905 | 85 | 235 | 0.0 | 0.0 | 0.00 | 0.00 | 0.00 | 55 | 1015.9 |
| 20260831003405 | 86 | 235 | 0.0 | 0.0 | 0.00 | 0.00 | 0.00 | 54 | 1015.8 |
| 20260831002904 | 86 | 235 | 0.0 | 0.0 | 0.00 | 0.00 | 0.00 | 53 | 1015.8 |
| 20260831002405 | 87 | 236 | 0.0 | 0.0 | 0.00 | 0.00 | 0.00 | 52 | 1015.8 |
| 20260831001404 | 88 | 237 | 0.0 | 0.0 | 0.00 | 0.00 | 0.00 | 50 | 1015.8 |
| 20260831000404 | 89 | 237 | 0.0 | 0.0 | 0.00 | 0.00 | 0.00 | 49 | 1015.9 |
| 20260830235905 | 89 | 237 | 0.0 | 0.0 | 0.00 | 0.00 | 0.00 | 49 | 1015.9 |
| 20260830235405 | 90 | 239 | 0.0 | 0.0 | 0.00 | 0.00 | 0.00 | 48 | 1016.0 |
| 20260830234404 | 90 | 239 | 0.0 | 0.0 | 0.00 | 0.00 | 0.00 | 46 | 1016.2 |
| 20260830233405 | 91 | 200 | 0.9 | 2.6 | 0.00 | 0.00 | 0.00 | 45 | 1016.1 |
| 20260830232904 | 91 | 209 | 0.9 | 5.2 | 0.00 | 0.00 | 0.00 | 45 | 1016.1 |
| 20260830232404 | 91 | 223 | 0.0 | 1.7 | 0.00 | 0.00 | 0.00 | 45 | 1016.0 |
| 20260830231905 | 91 | 205 | 0.0 | 5.2 | 0.00 | 0.00 | 0.00 | 45 | 1016.0 |
| 20260830231405 | 91 | 217 | 0.9 | 2.6 | 0.00 | 0.00 | 0.00 | 45 | 1016.0 |
| 20260830230904 | 90 | 192 | 0.9 | 5.2 | 0.00 | 0.00 | 0.00 | 46 | 1016.1 |
| 20260830230404 | 90 | 169 | 0.9 | 6.1 | 0.00 | 0.00 | 0.00 | 45 | 1016.1 |
| 20260830225904 | 91 | 216 | 0.9 | 8.7 | 0.00 | 0.00 | 0.00 | 45 | 1016.1 |
| 20260830225405 | 91 | 200 | 0.0 | 5.2 | 0.00 | 0.00 | 0.00 | 44 | 1016.0 |
| 20260830224904 | 91 | 212 | 0.0 | 4.3 | 0.00 | 0.00 | 0.00 | 43 | 1016.0 |
| 20260830224405 | 92 | 127 | 0.0 | 5.2 | 0.00 | 0.00 | 0.00 | 43 | 1015.9 |
| 20260830223905 | 92 | 180 | 1.7 | 6.1 | 0.00 | 0.00 | 0.00 | 42 | 1016.0 |
| 20260830223404 | 93 | 197 | 1.7 | 7.0 | 0.00 | 0.00 | 0.00 | 40 | 1016.0 |
| 20260830222904 | 94 | 250 | 0.9 | 4.3 | 0.00 | 0.00 | 0.00 | 39 | 1016.0 |
| 20260830222404 | 95 | 204 | 0.0 | 1.7 | 0.00 | 0.00 | 0.00 | 39 | 1016.1 |
| 20260830221905 | 95 | 182 | 0.9 | 4.3 | 0.00 | 0.00 | 0.00 | 38 | 1016.1 |
| 20260830221405 | 96 | 190 | 0.9 | 4.3 | 0.00 | 0.00 | 0.00 | 40 | 1016.1 |
| 20260830220905 | 96 | 190 | 0.0 | 1.7 | 0.00 | 0.00 | 0.00 | 39 | 1016.1 |
| 20260830215904 | 96 | 184 | 0.9 | 8.7 | 0.00 | 0.00 | 0.00 | 38 | 1016.1 |
| 20260830215404 | 96 | 190 | 0.9 | 5.2 | 0.00 | 0.00 | 0.00 | 39 | 1016.1 |
| 20260830214904 | 96 | 162 | 0.9 | 5.2 | 0.00 | 0.00 | 0.00 | 39 | 1016.1 |
| 20260830214405 | 96 | 212 | 1.7 | 5.2 | 0.00 | 0.00 | 0.00 | 37 | 1016.2 |
| 20260830213904 | 96 | 209 | 0.9 | 5.2 | 0.00 | 0.00 | 0.00 | 38 | 1016.2 |
| 20260830213404 | 96 | 225 | 0.9 | 6.1 | 0.00 | 0.00 | 0.00 | 38 | 1016.2 |
| 20260830212904 | 96 | 188 | 1.7 | 7.0 | 0.00 | 0.00 | 0.00 | 38 | 1016.3 |
| 20260830211905 | 96 | 225 | 0.9 | 6.1 | 0.00 | 0.00 | 0.00 | 38 | 1016.3 |
| 20260830211404 | 96 | 203 | 0.0 | 4.3 | 0.00 | 0.00 | 0.00 | 40 | 1016.3 |
| 20260830210904 | 96 | 219 | 0.9 | 2.6 | 0.00 | 0.00 | 0.00 | 39 | 1016.4 |
| 20260830210404 | 95 | 168 | 0.9 | 6.1 | 0.00 | 0.00 | 0.00 | 40 | 1016.5 |
| 20260830205905 | 95 | 182 | 0.9 | 4.3 | 0.00 | 0.00 | 0.00 | 39 | 1016.5 |
| 20260830205405 | 95 | 211 | 0.0 | 7.0 | 0.00 | 0.00 | 0.00 | 40 | 1016.4 |
| 20260830204905 | 95 | 190 | 0.9 | 7.0 | 0.00 | 0.00 | 0.00 | 40 | 1016.5 |
| 20260830203904 | 95 | 167 | 0.9 | 4.3 | 0.00 | 0.00 | 0.00 | 40 | 1016.5 |
| 20260830203404 | 95 | 171 | 1.7 | 10.4 | 0.00 | 0.00 | 0.00 | 40 | 1016.5 |
| 20260830202905 | 95 | 239 | 0.9 | 5.2 | 0.00 | 0.00 | 0.00 | 40 | 1016.7 |
| 20260830201905 | 95 | 220 | 2.6 | 7.0 | 0.00 | 0.00 | 0.00 | 41 | 1016.8 |
| 20260830201405 | 95 | 200 | 0.9 | 4.3 | 0.00 | 0.00 | 0.00 | 42 | 1016.8 |
| 20260830200404 | 95 | 180 | 0.0 | 2.6 | 0.00 | 0.00 | 0.00 | 43 | 1017.0 |
| 20260830195904 | 95 | 156 | 0.9 | 6.1 | 0.00 | 0.00 | 0.00 | 42 | 1017.0 |
| 20260830195404 | 94 | 172 | 0.9 | 5.2 | 0.00 | 0.00 | 0.00 | 42 | 1017.0 |
| 20260830194905 | 94 | 173 | 1.7 | 7.8 | 0.00 | 0.00 | 0.00 | 43 | 1017.1 |
| 20260830194405 | 94 | 154 | 3.5 | 7.0 | 0.00 | 0.00 | 0.00 | 42 | 1017.2 |
| 20260830193904 | 94 | 217 | 0.0 | 0.0 | 0.00 | 0.00 | 0.00 | 41 | 1017.2 |
| 20260830193404 | 94 | 227 | 0.9 | 6.1 | 0.00 | 0.00 | 0.00 | 39 | 1017.2 |
| 20260830192904 | 94 | 295 | 1.7 | 7.0 | 0.00 | 0.00 | 0.00 | 40 | 1017.2 |
| 20260830192405 | 94 | 212 | 2.6 | 7.0 | 0.00 | 0.00 | 0.00 | 41 | 1017.4 |
| 20260830191904 | 94 | 229 | 0.9 | 5.2 | 0.00 | 0.00 | 0.00 | 41 | 1017.4 |
| 20260830191404 | 94 | 197 | 0.9 | 8.7 | 0.00 | 0.00 | 0.00 | 42 | 1017.5 |
| 20260830190904 | 94 | 237 | 1.7 | 8.7 | 0.00 | 0.00 | 0.00 | 42 | 1017.5 |
| 20260830190404 | 94 | 219 | 2.6 | 6.1 | 0.00 | 0.00 | 0.00 | 42 | 1017.5 |
| 20260830185904 | 94 | 198 | 1.7 | 7.8 | 0.00 | 0.00 | 0.00 | 41 | 1017.5 |
| 20260830184905 | 94 | 203 | 2.6 | 6.1 | 0.00 | 0.00 | 0.00 | 42 | 1017.6 |
| 20260830184404 | 94 | 192 | 2.6 | 11.3 | 0.00 | 0.00 | 0.00 | 42 | 1017.6 |
| 20260830183904 | 93 | 211 | 1.7 | 8.7 | 0.00 | 0.00 | 0.00 | 43 | 1017.6 |
| 20260830182904 | 93 | 180 | 3.5 | 7.0 | 0.00 | 0.00 | 0.00 | 41 | 1017.6 |
| 20260830181904 | 93 | 202 | 0.9 | 6.1 | 0.00 | 0.00 | 0.00 | 41 | 1017.8 |
| 20260830180904 | 92 | 253 | 0.0 | 7.0 | 0.00 | 0.00 | 0.00 | 43 | 1018.0 |
| 20260830180405 | 92 | 206 | 1.7 | 6.1 | 0.00 | 0.00 | 0.00 | 43 | 1018.0 |
| 20260830175904 | 92 | 211 | 1.7 | 7.8 | 0.00 | 0.00 | 0.00 | 44 | 1018.0 |
| 20260830174404 | 91 | 216 | 0.0 | 4.3 | 0.00 | 0.00 | 0.00 | 44 | 1018.2 |
| 20260830173404 | 91 | 176 | 1.7 | 5.2 | 0.00 | 0.00 | 0.00 | 43 | 1018.4 |
| 20260830172904 | 91 | 153 | 0.9 | 6.1 | 0.00 | 0.00 | 0.00 | 42 | 1018.5 |
| 20260830172404 | 91 | 214 | 1.7 | 6.1 | 0.00 | 0.00 | 0.00 | 41 | 1018.5 |
| 20260830171904 | 91 | 179 | 0.0 | 7.0 | 0.00 | 0.00 | 0.00 | 43 | 1018.4 |
| 20260830171404 | 91 | 157 | 0.9 | 6.1 | 0.00 | 0.00 | 0.00 | 43 | 1018.5 |
| 20260830170904 | 91 | 135 | 0.9 | 7.8 | 0.00 | 0.00 | 0.00 | 45 | 1018.5 |
| 20260830170404 | 91 | 232 | 1.7 | 7.0 | 0.00 | 0.00 | 0.00 | 43 | 1018.5 |
| 20260830165904 | 91 | 188 | 0.9 | 4.3 | 0.00 | 0.00 | 0.00 | 43 | 1018.6 |
| 20260830165404 | 91 | 167 | 1.7 | 4.3 | 0.00 | 0.00 | 0.00 | 44 | 1018.6 |
| 20260830164904 | 91 | 249 | 0.9 | 4.3 | 0.00 | 0.00 | 0.00 | 44 | 1018.6 |
| 20260830164404 | 91 | 228 | 1.7 | 5.2 | 0.00 | 0.00 | 0.00 | 45 | 1018.6 |
| 20260830163905 | 90 | 155 | 0.0 | 1.7 | 0.00 | 0.00 | 0.00 | 46 | 1018.6 |
| 20260830163405 | 91 | 191 | 0.9 | 2.6 | 0.00 | 0.00 | 0.00 | 46 | 1018.7 |
| 20260830162904 | 91 | 220 | 1.7 | 5.2 | 0.00 | 0.00 | 0.00 | 46 | 1018.8 |
| 20260830162404 | 91 | 216 | 0.9 | 4.3 | 0.00 | 0.00 | 0.00 | 48 | 1018.7 |
| 20260830161905 | 91 | 184 | 0.9 | 4.3 | 0.00 | 0.00 | 0.00 | 48 | 1018.8 |
| 20260830160904 | 90 | 218 | 0.0 | 1.7 | 0.00 | 0.00 | 0.00 | 50 | 1018.8 |
| 20260830160404 | 90 | 164 | 0.9 | 1.7 | 0.00 | 0.00 | 0.00 | 51 | 1018.8 |
| 20260830155904 | 89 | 173 | 0.0 | 1.7 | 0.00 | 0.00 | 0.00 | 52 | 1018.8 |
| 20260830155403 | 89 | 193 | 0.9 | 2.6 | 0.00 | 0.00 | 0.00 | 52 | 1018.8 |
| 20260830154904 | 89 | 208 | 0.0 | 0.0 | 0.00 | 0.00 | 0.00 | 53 | 1018.8 |
| 20260830153904 | 88 | 177 | 0.0 | 0.0 | 0.00 | 0.00 | 0.00 | 54 | 1018.8 |
| 20260830153404 | 87 | 175 | 0.0 | 0.9 | 0.00 | 0.00 | 0.00 | 56 | 1018.8 |
| 20260830152904 | 87 | 193 | 0.9 | 2.6 | 0.00 | 0.00 | 0.00 | 55 | 1018.8 |
| 20260830152404 | 86 | 167 | 0.9 | 2.6 | 0.00 | 0.00 | 0.00 | 57 | 1018.7 |
| 20260830151904 | 85 | 147 | 0.0 | 1.7 | 0.00 | 0.00 | 0.00 | 58 | 1018.6 |
| 20260830151404 | 85 | 177 | 0.9 | 4.3 | 0.00 | 0.00 | 0.00 | 59 | 1018.6 |
| 20260830150404 | 83 | 190 | 0.0 | 1.7 | 0.00 | 0.00 | 0.00 | 62 | 1018.4 |
| 20260830145905 | 83 | 159 | 0.0 | 1.7 | 0.00 | 0.00 | 0.00 | 63 | 1018.4 |
| 20260830145405 | 82 | 219 | 0.0 | 1.7 | 0.00 | 0.00 | 0.00 | 64 | 1018.5 |
| 20260830144904 | 81 | 221 | 0.0 | 1.7 | 0.00 | 0.00 | 0.00 | 64 | 1018.6 |
| 20260830144404 | 81 | 205 | 0.9 | 2.6 | 0.00 | 0.00 | 0.00 | 65 | 1018.6 |
| 20260830143404 | 79 | 229 | 0.9 | 1.7 | 0.00 | 0.00 | 0.00 | 67 | 1018.4 |
| 20260830142904 | 79 | 156 | 0.0 | 2.6 | 0.00 | 0.00 | 0.00 | 68 | 1018.4 |
| 20260830142404 | 78 | 248 | 0.9 | 6.1 | 0.00 | 0.00 | 0.00 | 68 | 1018.5 |
| 20260830141904 | 78 | 186 | 0.0 | 0.0 | 0.00 | 0.00 | 0.00 | 69 | 1018.5 |
| 20260830141404 | 77 | 148 | 0.0 | 0.0 | 0.00 | 0.00 | 0.00 | 71 | 1018.5 |
| 20260830140903 | 76 | 159 | 0.0 | 0.0 | 0.00 | 0.00 | 0.00 | 71 | 1018.5 |
| 20260830135904 | 75 | 172 | 0.0 | 0.0 | 0.00 | 0.00 | 0.00 | 73 | 1018.5 |
| 20260830135403 | 74 | 175 | 0.0 | 0.0 | 0.00 | 0.00 | 0.00 | 73 | 1018.5 |
| 20260830134904 | 74 | 152 | 0.0 | 0.0 | 0.00 | 0.00 | 0.00 | 75 | 1018.5 |
| 20260830134404 | 73 | 169 | 0.0 | 0.0 | 0.00 | 0.00 | 0.00 | 76 | 1018.4 |